Location: Caseificio
(44.7500°N, 11.0500°E)
Time: 07:14:24
(UTC+00:00)

Meteor 1-24 Rocket - Visible Passes

Search period start: 06 October 2022 00:00
Search period end: 16 October 2022 00:00
Orbit: 789 x 928 km, 81.2° (Epoch: 06 October)

Date Brightness Start Highest point End Pass type
(mag) Time Alt. Az. Time Alt. Az. Time Alt. Az.
06 Oct 4.2 18:47:11 10° NNW 18:52:23 56° W 18:57:41 10° S visible
07 Oct 4.2 18:37:30 10° NNW 18:42:44 58° W 18:48:03 10° S visible
08 Oct 4.1 18:27:49 10° NNW 18:33:04 61° W 18:38:26 10° S visible
09 Oct 4.1 18:18:08 10° NNW 18:23:25 63° W 18:28:49 10° S visible
10 Oct 4.0 18:08:27 10° NNW 18:13:46 65° W 18:19:11 10° S visible
11 Oct 4.0 17:58:46 10° NNW 18:04:07 68° W 18:09:34 10° S visible
12 Oct 3.9 17:49:05 10° NNW 17:54:27 71° W 17:59:56 10° S visible
13 Oct 3.9 17:39:24 10° NNW 17:44:47 73° W 17:50:18 10° S visible
14 Oct 3.9 17:29:44 10° NNW 17:35:08 76° W 17:40:41 10° S visible
15 Oct 6.7 05:01:57 10° ESE 05:05:09 16° E 05:08:18 10° NE visible
15 Oct 3.8 17:20:03 10° NNW 17:25:28 79° W 17:31:03 10° S visible
